Time,TemperatureF,DewpointF,PressureIn,WindDirection,WindDirectionDegrees,WindSpeedMPH,WindSpeedGustMPH,Humidity,HourlyPrecipIn,Conditions,Clouds,dailyrainin,SoftwareType,DateUTC
2013-01-28 00:03:00,35.0,34.0,29.99,SSW,197,8.0,14.0,96,0.00,,,0.04,,2013-01-28 05:03:00,
2013-01-28 00:11:00,35.0,34.0,29.99,SSW,197,8.0,14.0,96,0.00,,,0.04,,2013-01-28 05:11:00,
2013-01-28 00:21:00,36.0,35.0,29.98,SSE,157,6.0,13.0,96,0.01,,,0.05,,2013-01-28 05:21:00,
2013-01-28 00:31:00,36.0,35.0,29.98,SSE,158,8.0,16.0,97,0.01,,,0.05,,2013-01-28 05:31:00,
2013-01-28 00:41:00,36.0,35.0,29.98,SSE,158,8.0,16.0,97,0.01,,,0.05,,2013-01-28 05:41:00,
2013-01-28 00:52:00,36.0,35.0,29.96,SSE,162,8.0,14.0,97,0.01,,,0.05,,2013-01-28 05:52:00,
2013-01-28 01:02:00,36.0,35.0,29.96,SSE,160,8.0,14.0,97,0.01,,,0.05,,2013-01-28 06:02:00,
2013-01-28 01:11:00,36.0,35.0,29.96,SSE,160,8.0,14.0,97,0.01,,,0.05,,2013-01-28 06:11:00,
2013-01-28 01:21:00,37.0,36.0,29.96,SSE,156,9.0,14.0,97,0.00,,,0.05,,2013-01-28 06:21:00,
2013-01-28 01:32:00,38.0,37.0,29.95,SSE,166,10.0,16.0,98,0.00,,,0.05,,2013-01-28 06:32:00,
2013-01-28 01:42:00,38.0,37.0,29.95,SSE,166,10.0,16.0,98,0.00,,,0.05,,2013-01-28 06:42:00,
2013-01-28 01:52:00,38.0,37.0,29.94,SW,215,8.0,15.0,97,0.00,,,0.05,,2013-01-28 06:52:00,
2013-01-28 02:02:00,38.0,37.0,29.93,SW,218,8.0,17.0,97,0.00,,,0.05,,2013-01-28 07:02:00,
2013-01-28 02:11:00,38.0,37.0,29.93,SW,218,8.0,17.0,97,0.00,,,0.05,,2013-01-28 07:11:00,
2013-01-28 02:21:00,39.0,38.0,29.93,SSW,194,9.0,15.0,98,0.00,,,0.05,,2013-01-28 07:21:00,
2013-01-28 02:31:00,40.0,39.0,29.92,South,188,11.0,16.0,98,0.00,,,0.05,,2013-01-28 07:31:00,
2013-01-28 02:41:00,40.0,39.0,29.92,South,188,11.0,16.0,98,0.00,,,0.05,,2013-01-28 07:41:00,
2013-01-28 02:52:00,41.0,40.0,29.92,SSE,165,13.0,20.0,98,0.00,,,0.05,,2013-01-28 07:52:00,
2013-01-28 03:01:00,42.0,41.0,29.92,SSW,203,11.0,20.0,98,0.00,,,0.05,,2013-01-28 08:01:00,
2013-01-28 03:11:00,42.0,41.0,29.92,SSW,203,11.0,20.0,98,0.00,,,0.05,,2013-01-28 08:11:00,
2013-01-28 03:21:00,42.0,41.0,29.92,SW,225,10.0,20.0,98,0.00,,,0.05,,2013-01-28 08:21:00,
2013-01-28 03:32:00,42.0,41.0,29.92,SSW,200,12.0,20.0,98,0.00,,,0.05,,2013-01-28 08:32:00,
2013-01-28 03:42:00,42.0,41.0,29.92,SSW,200,12.0,20.0,98,0.00,,,0.05,,2013-01-28 08:42:00,
2013-01-28 03:52:00,43.0,42.0,29.92,SSW,205,13.0,20.0,97,0.00,,,0.05,,2013-01-28 08:52:00,
2013-01-28 04:02:00,43.0,42.0,29.91,SSW,204,10.0,18.0,97,0.00,,,0.05,,2013-01-28 09:02:00,
2013-01-28 04:11:00,43.0,42.0,29.91,SSW,204,10.0,18.0,97,0.00,,,0.05,,2013-01-28 09:11:00,
2013-01-28 04:21:00,43.0,42.0,29.91,South,190,12.0,18.0,97,0.00,,,0.05,,2013-01-28 09:21:00,
2013-01-28 04:32:00,43.0,42.0,29.91,SW,222,13.0,18.0,97,0.00,,,0.05,,2013-01-28 09:32:00,
2013-01-28 04:42:00,43.0,42.0,29.91,SW,222,13.0,18.0,97,0.00,,,0.05,,2013-01-28 09:42:00,
2013-01-28 04:52:00,44.0,43.0,29.90,SSW,200,11.0,20.0,97,0.00,,,0.05,,2013-01-28 09:52:00,
2013-01-28 05:02:00,44.0,43.0,29.89,SSW,198,10.0,17.0,97,0.00,,,0.05,,2013-01-28 10:02:00,
2013-01-28 05:11:00,44.0,43.0,29.89,SSW,198,10.0,17.0,97,0.00,,,0.05,,2013-01-28 10:11:00,
2013-01-28 05:21:00,45.0,44.0,29.89,SSW,198,8.0,19.0,97,0.00,,,0.05,,2013-01-28 10:21:00,
2013-01-28 05:31:00,46.0,45.0,29.89,SW,224,11.0,20.0,97,0.01,,,0.06,,2013-01-28 10:31:00,
2013-01-28 05:41:00,46.0,45.0,29.89,SW,224,11.0,20.0,97,0.01,,,0.06,,2013-01-28 10:41:00,
2013-01-28 05:52:00,46.0,45.0,29.89,SW,225,11.0,19.0,97,0.01,,,0.06,,2013-01-28 10:52:00,
2013-01-28 06:02:00,46.0,45.0,29.88,SW,215,12.0,18.0,97,0.04,,,0.09,,2013-01-28 11:02:00,
2013-01-28 06:11:00,46.0,45.0,29.88,SW,215,12.0,18.0,97,0.04,,,0.09,,2013-01-28 11:11:00,
2013-01-28 06:22:00,47.0,46.0,29.88,South,177,10.0,18.0,97,0.06,,,0.11,,2013-01-28 11:22:00,
2013-01-28 06:32:00,47.0,46.0,29.88,SW,235,11.0,20.0,97,0.05,,,0.11,,2013-01-28 11:32:00,
2013-01-28 06:42:00,47.0,46.0,29.88,SW,235,11.0,20.0,97,0.05,,,0.11,,2013-01-28 11:42:00,
2013-01-28 06:52:00,47.0,46.0,29.88,SW,219,9.0,18.0,97,0.05,,,0.11,,2013-01-28 11:52:00,
2013-01-28 07:03:00,47.0,46.0,29.88,South,186,11.0,17.0,97,0.02,,,0.11,,2013-01-28 12:03:00,
2013-01-28 07:11:00,47.0,46.0,29.88,South,186,11.0,17.0,97,0.02,,,0.11,,2013-01-28 12:11:00,
2013-01-28 07:23:00,47.0,46.0,29.88,SSW,207,11.0,17.0,97,0.00,,,0.11,,2013-01-28 12:23:00,
2013-01-28 07:33:00,48.0,47.0,29.88,SW,219,10.0,22.0,97,0.00,,,0.11,,2013-01-28 12:33:00,
2013-01-28 07:42:00,48.0,47.0,29.88,SW,219,10.0,22.0,97,0.00,,,0.11,,2013-01-28 12:42:00,
2013-01-28 07:52:00,48.0,47.0,29.88,WSW,258,9.0,18.0,97,0.00,,,0.11,,2013-01-28 12:52:00,
2013-01-28 08:02:00,47.0,46.0,29.88,SSW,195,10.0,15.0,97,0.00,,,0.11,,2013-01-28 13:02:00,
2013-01-28 08:12:00,47.0,46.0,29.88,SSW,195,10.0,15.0,97,0.00,,,0.11,,2013-01-28 13:12:00,
2013-01-28 08:23:00,47.0,46.0,29.89,SSW,205,10.0,17.0,97,0.00,,,0.11,,2013-01-28 13:23:00,
2013-01-28 08:33:00,48.0,47.0,29.89,SW,228,9.0,14.0,97,0.00,,,0.11,,2013-01-28 13:33:00,
2013-01-28 08:42:00,48.0,47.0,29.89,SW,228,9.0,14.0,97,0.00,,,0.11,,2013-01-28 13:42:00,
2013-01-28 08:53:00,48.0,47.0,29.90,South,170,9.0,14.0,97,0.00,,,0.11,,2013-01-28 13:53:00,
2013-01-28 09:02:00,48.0,47.0,29.91,SW,232,10.0,16.0,97,0.00,,,0.11,,2013-01-28 14:02:00,
2013-01-28 09:12:00,48.0,47.0,29.91,SW,232,10.0,16.0,97,0.00,,,0.11,,2013-01-28 14:12:00,
2013-01-28 09:22:00,48.0,47.0,29.91,WSW,248,8.0,15.0,97,0.00,,,0.11,,2013-01-28 14:22:00,
2013-01-28 09:33:00,47.0,46.0,29.92,SW,222,7.0,14.0,97,0.00,,,0.11,,2013-01-28 14:33:00,
2013-01-28 09:42:00,47.0,46.0,29.92,SW,222,7.0,14.0,97,0.00,,,0.11,,2013-01-28 14:42:00,
2013-01-28 09:53:00,47.0,46.0,29.92,SW,217,8.0,12.0,97,0.00,,,0.11,,2013-01-28 14:53:00,
2013-01-28 10:03:00,47.0,46.0,29.92,SW,235,6.0,11.0,98,0.00,,,0.11,,2013-01-28 15:03:00,
2013-01-28 10:12:00,47.0,46.0,29.92,SW,235,6.0,11.0,98,0.00,,,0.11,,2013-01-28 15:12:00,
2013-01-28 10:23:00,47.0,46.0,29.93,SW,232,6.0,10.0,98,0.00,,,0.11,,2013-01-28 15:23:00,
2013-01-28 10:33:00,47.0,46.0,29.93,SW,236,6.0,9.0,98,0.00,,,0.11,,2013-01-28 15:33:00,
2013-01-28 10:43:00,47.0,46.0,29.93,SW,236,6.0,9.0,98,0.00,,,0.11,,2013-01-28 15:43:00,
2013-01-28 10:53:00,48.0,47.0,29.93,WSW,245,6.0,9.0,98,0.00,,,0.11,,2013-01-28 15:53:00,
2013-01-28 11:03:00,48.0,47.0,29.94,SW,233,5.0,7.0,98,0.00,,,0.11,,2013-01-28 16:03:00,
2013-01-28 11:12:00,48.0,47.0,29.94,SW,233,5.0,7.0,98,0.00,,,0.11,,2013-01-28 16:12:00,
2013-01-28 11:22:00,48.0,47.0,29.95,WSW,237,4.0,6.0,98,0.00,,,0.11,,2013-01-28 16:22:00,
2013-01-28 11:32:00,48.0,47.0,29.96,SW,231,5.0,6.0,98,0.00,,,0.11,,2013-01-28 16:32:00,
2013-01-28 11:43:00,48.0,47.0,29.96,SW,231,5.0,6.0,98,0.00,,,0.11,,2013-01-28 16:43:00,
2013-01-28 11:53:00,48.0,47.0,29.96,WSW,239,4.0,5.0,98,0.00,,,0.11,,2013-01-28 16:53:00,
2013-01-28 12:02:00,49.0,48.0,29.96,WSW,257,3.0,7.0,98,0.00,,,0.11,,2013-01-28 17:02:00,
2013-01-28 12:12:00,49.0,48.0,29.96,WSW,257,3.0,7.0,98,0.00,,,0.11,,2013-01-28 17:12:00,
2013-01-28 12:22:00,49.0,48.0,29.96,WSW,256,3.0,6.0,98,0.00,,,0.11,,2013-01-28 17:22:00,
2013-01-28 12:32:00,50.0,49.0,29.96,WSW,238,3.0,6.0,98,0.00,,,0.11,,2013-01-28 17:32:00,
2013-01-28 12:42:00,50.0,49.0,29.96,WSW,238,3.0,6.0,98,0.00,,,0.11,,2013-01-28 17:42:00,
2013-01-28 12:52:00,49.0,48.0,29.96,WNW,294,4.0,8.0,98,0.00,,,0.11,,2013-01-28 17:52:00,
2013-01-28 13:02:00,49.0,48.0,29.95,West,266,3.0,7.0,98,0.00,,,0.11,,2013-01-28 18:02:00,
2013-01-28 13:12:00,49.0,48.0,29.95,West,266,3.0,7.0,98,0.00,,,0.11,,2013-01-28 18:12:00,
2013-01-28 13:23:00,49.0,48.0,29.95,West,278,5.0,9.0,97,0.00,,,0.11,,2013-01-28 18:23:00,
2013-01-28 13:33:00,49.0,48.0,29.95,NW,307,4.0,8.0,97,0.00,,,0.11,,2013-01-28 18:33:00,
2013-01-28 13:42:00,49.0,48.0,29.95,NW,307,4.0,8.0,97,0.00,,,0.11,,2013-01-28 18:42:00,
2013-01-28 13:52:00,49.0,48.0,29.95,WNW,288,4.0,9.0,96,0.00,,,0.11,,2013-01-28 18:52:00,
2013-01-28 14:02:00,48.0,47.0,29.94,WNW,290,5.0,9.0,96,0.00,,,0.11,,2013-01-28 19:02:00,
2013-01-28 14:12:00,48.0,47.0,29.94,WNW,290,5.0,9.0,96,0.00,,,0.11,,2013-01-28 19:12:00,
2013-01-28 14:22:00,48.0,47.0,29.95,WNW,302,4.0,8.0,96,0.00,,,0.11,,2013-01-28 19:22:00,
2013-01-28 14:32:00,47.0,46.0,29.95,WNW,287,3.0,7.0,96,0.00,,,0.11,,2013-01-28 19:32:00,
2013-01-28 14:42:00,47.0,46.0,29.95,WNW,287,3.0,7.0,96,0.00,,,0.11,,2013-01-28 19:42:00,
2013-01-28 14:52:00,47.0,46.0,29.94,WNW,285,3.0,7.0,96,0.00,,,0.11,,2013-01-28 19:52:00,
2013-01-28 15:02:00,47.0,46.0,29.94,WNW,293,3.0,5.0,96,0.00,,,0.11,,2013-01-28 20:02:00,
2013-01-28 15:12:00,47.0,46.0,29.94,WNW,293,3.0,5.0,96,0.00,,,0.11,,2013-01-28 20:12:00,
2013-01-28 15:22:00,47.0,46.0,29.95,WNW,293,3.0,5.0,95,0.00,,,0.11,,2013-01-28 20:22:00,
2013-01-28 15:33:00,47.0,46.0,29.95,NW,312,2.0,3.0,95,0.00,,,0.11,,2013-01-28 20:33:00,
2013-01-28 15:42:00,47.0,46.0,29.95,NW,312,2.0,3.0,95,0.00,,,0.11,,2013-01-28 20:42:00,
2013-01-28 15:53:00,47.0,46.0,29.96,West,267,1.0,3.0,95,0.00,,,0.11,,2013-01-28 20:53:00,
2013-01-28 16:03:00,47.0,45.0,29.96,West,260,1.0,3.0,94,0.00,,,0.11,,2013-01-28 21:03:00,
2013-01-28 16:12:00,47.0,45.0,29.96,West,260,1.0,3.0,94,0.00,,,0.11,,2013-01-28 21:12:00,
2013-01-28 16:22:00,48.0,46.0,29.96,West,259,1.0,2.0,94,0.00,,,0.11,,2013-01-28 21:22:00,
2013-01-28 16:33:00,47.0,45.0,29.96,WSW,252,0.0,1.0,94,0.00,,,0.11,,2013-01-28 21:33:00,
2013-01-28 16:42:00,47.0,45.0,29.96,WSW,252,0.0,1.0,94,0.00,,,0.11,,2013-01-28 21:42:00,
2013-01-28 16:53:00,47.0,45.0,29.96,West,271,0.0,1.0,94,0.00,,,0.11,,2013-01-28 21:53:00,
2013-01-28 17:02:00,47.0,45.0,29.96,West,271,0.0,0.0,94,0.00,,,0.11,,2013-01-28 22:02:00,
2013-01-28 17:11:00,47.0,45.0,29.96,West,271,0.0,0.0,94,0.00,,,0.11,,2013-01-28 22:11:00,
2013-01-28 17:22:00,47.0,45.0,29.97,West,271,0.0,0.0,94,0.00,,,0.07,,2013-01-28 22:22:00,
2013-01-28 17:32:00,47.0,45.0,29.97,West,271,0.0,0.0,94,0.00,,,0.07,,2013-01-28 22:32:00,
2013-01-28 17:42:00,47.0,45.0,29.97,West,271,0.0,0.0,94,0.00,,,0.07,,2013-01-28 22:42:00,
2013-01-28 17:52:00,47.0,46.0,29.96,ENE,60,0.0,1.0,95,0.00,,,0.07,,2013-01-28 22:52:00,
2013-01-28 18:02:00,46.0,45.0,29.96,ESE,104,1.0,2.0,96,0.00,,,0.07,,2013-01-28 23:02:00,
2013-01-28 18:11:00,46.0,45.0,29.96,ESE,104,1.0,2.0,96,0.00,,,0.07,,2013-01-28 23:11:00,
2013-01-28 18:22:00,46.0,45.0,29.96,ESE,108,1.0,1.0,96,0.00,,,0.07,,2013-01-28 23:22:00,
2013-01-28 18:32:00,46.0,45.0,29.97,ESE,112,0.0,2.0,97,0.00,,,0.07,,2013-01-28 23:32:00,
2013-01-28 18:42:00,46.0,45.0,29.97,ESE,112,0.0,2.0,97,0.00,,,0.07,,2013-01-28 23:42:00,
2013-01-28 18:53:00,46.0,45.0,29.97,ESE,110,1.0,2.0,97,0.00,,,0.07,,2013-01-28 23:53:00,
2013-01-28 19:02:00,45.0,44.0,29.97,ESE,108,1.0,3.0,97,0.00,,,0.07,,2013-01-29 00:02:00,
2013-01-28 19:12:00,45.0,44.0,29.97,ESE,108,1.0,3.0,97,0.00,,,0.07,,2013-01-29 00:12:00,
2013-01-28 19:22:00,45.0,44.0,29.98,SE,127,1.0,4.0,97,0.00,,,0.07,,2013-01-29 00:22:00,
2013-01-28 19:32:00,45.0,44.0,29.98,East,89,1.0,3.0,97,0.00,,,0.07,,2013-01-29 00:32:00,
2013-01-28 19:42:00,45.0,44.0,29.98,East,89,1.0,3.0,97,0.00,,,0.07,,2013-01-29 00:42:00,
2013-01-28 19:52:00,45.0,44.0,29.97,ENE,73,2.0,4.0,97,0.00,,,0.07,,2013-01-29 00:52:00,
2013-01-28 20:02:00,45.0,44.0,29.98,East,84,2.0,4.0,98,0.00,,,0.07,,2013-01-29 01:02:00,
2013-01-28 20:12:00,45.0,44.0,29.98,East,84,2.0,4.0,98,0.00,,,0.07,,2013-01-29 01:12:00,
2013-01-28 20:22:00,45.0,44.0,29.97,East,79,3.0,4.0,98,0.00,,,0.07,,2013-01-29 01:22:00,
2013-01-28 20:32:00,44.0,43.0,29.97,ESE,115,3.0,4.0,97,0.00,,,0.07,,2013-01-29 01:32:00,
2013-01-28 20:42:00,44.0,43.0,29.97,ESE,115,3.0,4.0,97,0.00,,,0.07,,2013-01-29 01:42:00,
2013-01-28 20:52:00,43.0,42.0,29.96,ENE,64,3.0,6.0,97,0.00,,,0.07,,2013-01-29 01:52:00,
2013-01-28 21:02:00,43.0,42.0,29.96,East,92,2.0,4.0,98,0.00,,,0.07,,2013-01-29 02:02:00,
2013-01-28 21:12:00,43.0,42.0,29.96,East,92,2.0,4.0,98,0.00,,,0.07,,2013-01-29 02:12:00,
2013-01-28 21:21:00,42.0,41.0,29.96,East,94,2.0,5.0,98,0.00,,,0.07,,2013-01-29 02:21:00,
2013-01-28 21:32:00,42.0,41.0,29.96,East,80,3.0,4.0,98,0.00,,,0.07,,2013-01-29 02:32:00,
2013-01-28 21:42:00,42.0,41.0,29.96,East,80,3.0,4.0,98,0.00,,,0.07,,2013-01-29 02:42:00,
2013-01-28 21:53:00,42.0,41.0,29.96,East,97,1.0,3.0,98,0.00,,,0.07,,2013-01-29 02:53:00,
2013-01-28 22:03:00,42.0,41.0,29.96,SSE,148,3.0,4.0,98,0.00,,,0.07,,2013-01-29 03:03:00,
2013-01-28 22:11:00,42.0,41.0,29.96,SSE,148,3.0,4.0,98,0.00,,,0.07,,2013-01-29 03:11:00,
2013-01-28 22:22:00,42.0,41.0,29.96,East,100,3.0,5.0,98,0.01,,,0.08,,2013-01-29 03:22:00,
2013-01-28 22:32:00,42.0,41.0,29.95,East,96,2.0,4.0,98,0.01,,,0.08,,2013-01-29 03:32:00,
2013-01-28 22:42:00,42.0,41.0,29.95,East,96,2.0,4.0,98,0.01,,,0.08,,2013-01-29 03:42:00,
2013-01-28 22:53:00,42.0,41.0,29.94,East,96,2.0,3.0,98,0.01,,,0.08,,2013-01-29 03:53:00,
2013-01-28 23:02:00,43.0,42.0,29.93,East,91,2.0,4.0,98,0.01,,,0.08,,2013-01-29 04:02:00,
2013-01-28 23:11:00,43.0,42.0,29.93,East,91,2.0,4.0,98,0.01,,,0.08,,2013-01-29 04:11:00,
2013-01-28 23:21:00,43.0,42.0,29.92,ESE,108,4.0,5.0,98,0.00,,,0.08,,2013-01-29 04:21:00,
2013-01-28 23:32:00,44.0,44.0,29.91,East,98,3.0,6.0,99,0.00,,,0.08,,2013-01-29 04:32:00,
2013-01-28 23:41:00,44.0,44.0,29.91,East,98,3.0,6.0,99,0.00,,,0.08,,2013-01-29 04:41:00,
2013-01-28 23:52:00,44.0,44.0,29.89,ESE,113,4.0,7.0,99,0.00,,,0.08,,2013-01-29 04:52:00,